{"data":{"norad_id":36744,"epoch":"2026-05-24T18:05:06.158400Z","epoch_age_seconds":99362,"freshness":"FRESH","line1":"1 36744U 10032A   26144.75354350 -.00000347  00000+0  00000+0 0  9992","line2":"2 36744   4.7506  75.6577 0001011 328.9933 237.1042  1.00271668 50853","mean_motion":1.00271668,"eccentricity":0.0001011,"inclination_deg":4.7506,"raan_deg":75.6577,"arg_perigee_deg":328.9933,"mean_anomaly_deg":237.1042,"bstar":0,"rev_number":5085,"period_min":1436.0985797105,"perigee_km":35782.364902852,"apogee_km":35790.890618287,"semimajor_km":42164.76476057,"source":"CELESTRAK","updated_at":"2026-05-25T13:38:13.893322Z"}}